Weather Roundup
Issued by NWS Springfield, MO

Home | Current Version | Previous Version | Text Only | Print | Product List | Glossary On
Versions: 1 2 3 4 5 6 7 8 9 10 11 12 13 14 15 16 17 18 19 20 21 22 23 24 25 26 27 28 29 30 31 32 33 34 35 36 37 38 39 40 41 42 43 44 45 46 47 48 49 50
000
NZUS99 KSGF 281757
HRRSGF

HOURLY WEATHER
NATIONAL WEATHER SERVICE SPRINGFIELD MO
100 PM CDT SAT MAY 28 2016

......SGF CWA......

CITY           SKY/WX    TMP DP  RH WIND       PRES   REMARKS
SPRINGFIELD    MOSUNNY   77  64  64 W13       29.95S
6HR MIN TEMP:  63; 6HR MAX TEMP:  78;

JOPLIN         PTSUNNY   76  64  66 S13G22    29.95R
6HR MIN TEMP:  64; 6HR MAX TEMP:  77;

WEST PLAINS    SUNNY     78  64  61 S10       30.00R
6HR MIN TEMP:  66; 6HR MAX TEMP:  78;

ROLLA          MOSUNNY   78  67  68 SW9       29.93S
6HR MIN TEMP:  64; 6HR MAX TEMP:  78;

BRANSON        MOSUNNY   77  64  65 CALM      29.99R

......SURROUNDING SGF CWA......

CITY           SKY/WX    TMP DP  RH WIND       PRES   REMARKS
CHANUTE        PTSUNNY   76  63  64 SW12      29.92S
PARSONS        MOSUNNY   77  62  59 W8        29.94R
COFFEYVILLE    SUNNY     77  60  55 SW12      29.93S
EMPORIA        MOSUNNY   73  58  59 W9        29.92R
HARRISON AR    SUNNY     80  65  59 SW8       29.98S

......KANSAS AND MISSOURI......

CITY           SKY/WX    TMP DP  RH WIND       PRES   REMARKS
KANSAS CTY INT PTSUNNY   72  62  71 W10       29.87R
SEDALIA        MOSUNNY   78  64  61 SW18G24   29.91R
ST JOSEPH      MOSUNNY   73  60  63 W15G21    29.85R
ST LOUIS       PTSUNNY   83  65  54 S12       29.93F
WICHITA        MOSUNNY   76  58  53 W12       29.93R
TOPEKA         MOSUNNY   72  59  63 W13G18    29.88R
OLATHE         PTSUNNY   72  60  66 W13       29.89R

......TENNESSEE......

CITY           SKY/WX    TMP DP  RH WIND       PRES   REMARKS
MEMPHIS        NOT AVBL
NASHVILLE      CLOUDY    80  63  55 S9        30.09F

......ARKANSAS.......

CITY           SKY/WX    TMP DP  RH WIND       PRES   REMARKS
FAYETTEVILLE   MOSUNNY   75  67  76 S13       29.99S
FT SMITH       MOSUNNY   78  63  59 VRB7      29.98F
LITTLE ROCK    PTSUNNY   81  64  56 SW5       30.00R

......OKLAHOMA.......

CITY           SKY/WX    TMP DP  RH WIND       PRES   REMARKS
TULSA          MOSUNNY   79  62  56 SW7       29.93S
MCALESTER      SUNNY     79  65  62 SE7       29.97F
OKLAHOMA CITY  MOSUNNY   78  60  53 W6        29.96R

......IOWA............

CITY           SKY/WX    TMP DP  RH WIND       PRES   REMARKS
DES MOINES     NOT AVBL
QUAD CITIES    MOSUNNY   81  65  58 S14       29.84S

......ILLINOIS........

CITY           SKY/WX    TMP DP  RH WIND       PRES   REMARKS
QUINCY         MOSUNNY   79  66  64 SE17G29   29.86F
CHICAGO        CLOUDY    75  65  70 SW16G22   29.92S




USA.gov is the U.S. government's official web portal to all federal, state and local government web resources and services.